Weather History for Corning, AR

Change the Weather History Date:

Thursday, January 24, 2013

  Actual Average (KARG) Record (KARG)
Temperature  
Mean Temperature 30 °F -  
Max Temperature 35 °F 43 °F 64 °F (2006)
Min Temperature 26 °F 28 °F 8 °F (2003)
Degree Days  
Heating Degree Days 34    
Moisture  
Dew Point 19 °F    
Average Humidity 61    
Maximum Humidity 87    
Minimum Humidity 47    
Precipitation  
Precipitation 0.00 in - - ()
Sea Level Pressure  
Sea Level Pressure 30.39 in    
Wind  
Wind Speed 13 mph (NE)    
Max Wind Speed 22 mph    
Max Gust Speed 30 mph    
Visibility 10 miles    
Events      
Averages and records for this station are not official NWS values.
T = Trace of Precipitation, MM = Missing Value Source: NWS Daily Summary

Daily Weather History Graph

Daily Weather History Graph

Search for Another Location

Airport:

Trip Planner

Search our weather history database for the weather conditions in past years. The results will help you decide how hot, cold, wet, or windy it might be!

Date:

Astronomy

Jan. 24, 2013 Rise Set
Actual Time 7:09 AM CST 5:20 PM CST
Civil Twilight 6:41 AM CST 5:48 PM CST
Nautical Twilight 6:10 AM CST 6:19 PM CST
Astronomical Twilight 5:39 AM CST 6:49 PM CST
Moon 3:23 PM CST (1/24) 5:05 AM CST (1/24)
Length of Visible Light 11h 06m
Length of Day
10h 11m
Waxing Gibbous, 94% of the Moon is Illuminated
Jan 24
Waxing Gibbous
Jan 26
Full
Feb 3
Last Quarter
Feb 10
New
Feb 17
First Quarter

Hourly Weather History & Observations

Time (CST) Temp. Windchill Dew Point Humidity Pressure Visibility Wind Dir Wind Speed Gust Speed Precip Events Conditions
12:15 AM 35.6 °F 29.2 °F 30.2 °F 81% 30.28 in 10.0 mi North 8.1 mph - N/A   Clear
12:35 AM 35.6 °F 30.7 °F 30.2 °F 81% 30.28 in 10.0 mi North 5.8 mph - N/A   Clear
12:55 AM 32.0 °F 24.8 °F 28.4 °F 87% 30.29 in 10.0 mi North 8.1 mph - N/A   Clear
1:15 AM 35.6 °F 29.2 °F 28.4 °F 75% 30.29 in 10.0 mi North 8.1 mph - N/A   Clear
1:35 AM 35.6 °F 28.0 °F 26.6 °F 70% 30.30 in 10.0 mi NNE 10.4 mph - N/A   Clear
1:55 AM 35.6 °F 28.0 °F 26.6 °F 70% 30.31 in 10.0 mi NNE 10.4 mph - N/A   Clear
2:15 AM 32.0 °F 24.8 °F 26.6 °F 80% 30.33 in 10.0 mi NNE 8.1 mph - N/A   Clear
2:35 AM 33.8 °F 25.8 °F 24.8 °F 70% 30.34 in 10.0 mi NE 10.4 mph - N/A   Clear
2:55 AM 32.0 °F 23.0 °F 24.8 °F 75% 30.34 in 10.0 mi NE 11.5 mph - N/A   Clear
3:15 AM 32.0 °F 23.6 °F 23.0 °F 69% 30.35 in 10.0 mi NNE 10.4 mph - N/A   Clear
3:35 AM 32.0 °F 23.6 °F 23.0 °F 69% 30.35 in 10.0 mi NNE 10.4 mph - N/A   Clear
3:55 AM 32.0 °F 23.6 °F 23.0 °F 69% 30.36 in 10.0 mi NNE 10.4 mph - N/A   Mostly Cloudy
4:15 AM 32.0 °F 22.1 °F 21.2 °F 64% 30.37 in 10.0 mi NNE 13.8 mph 17.3 mph N/A   Overcast
4:35 AM 32.0 °F 20.5 °F 17.6 °F 55% 30.38 in 10.0 mi NNE 18.4 mph 24.2 mph N/A   Overcast
4:55 AM 32.0 °F 21.6 °F 17.6 °F 55% 30.39 in 10.0 mi NNE 15.0 mph - N/A   Overcast
5:15 AM 32.0 °F 22.5 °F 17.6 °F 55% 30.41 in 10.0 mi NNE 12.7 mph 17.3 mph N/A   Overcast
5:35 AM 32.0 °F 21.6 °F 17.6 °F 55% 30.41 in 10.0 mi NE 15.0 mph 18.4 mph N/A   Mostly Cloudy
5:55 AM 32.0 °F 21.6 °F 19.4 °F 60% 30.42 in 10.0 mi NE 15.0 mph 18.4 mph N/A   Mostly Cloudy
6:15 AM 32.0 °F 21.2 °F 19.4 °F 60% 30.42 in 10.0 mi NE 16.1 mph - N/A   Overcast
6:35 AM 30.2 °F 19.3 °F 19.4 °F 64% 30.44 in 10.0 mi NE 15.0 mph 19.6 mph N/A   Overcast
6:55 AM 28.4 °F 14.7 °F 19.4 °F 69% 30.45 in 10.0 mi NE 21.9 mph 26.5 mph N/A   Overcast
7:15 AM 28.4 °F 15.4 °F 17.6 °F 64% 30.46 in 10.0 mi NE 19.6 mph 27.6 mph N/A   Overcast
7:35 AM 28.4 °F 14.7 °F 17.6 °F 64% 30.47 in 10.0 mi NE 21.9 mph 29.9 mph N/A   Overcast
7:55 AM 26.6 °F 12.4 °F 17.6 °F 69% 30.48 in 10.0 mi NE 21.9 mph 28.8 mph N/A   Mostly Cloudy
8:15 AM 26.6 °F 14.3 °F 15.8 °F 64% 30.50 in 10.0 mi NE 16.1 mph 27.6 mph N/A   Partly Cloudy
8:35 AM 26.6 °F 13.8 °F 15.8 °F 64% 30.50 in 10.0 mi NE 17.3 mph 23.0 mph N/A   Clear
8:55 AM 26.6 °F 14.7 °F 15.8 °F 64% 30.51 in 10.0 mi NE 15.0 mph 21.9 mph N/A   Clear
9:15 AM 26.6 °F 12.4 °F 15.8 °F 64% 30.52 in 10.0 mi ENE 21.9 mph 26.5 mph N/A   Clear
9:35 AM 26.6 °F 13.8 °F 15.8 °F 64% 30.53 in 10.0 mi ENE 17.3 mph 26.5 mph N/A   Clear
9:55 AM 28.4 °F 16.2 °F 15.8 °F 59% 30.54 in 10.0 mi NE 17.3 mph 23.0 mph N/A   Clear
10:15 AM 28.4 °F 15.4 °F 15.8 °F 59% 30.54 in 10.0 mi NE 19.6 mph - N/A   Clear
10:35 AM 28.4 °F 15.4 °F 15.8 °F 59% 30.54 in 10.0 mi NE 19.6 mph - N/A   Clear
10:55 AM 28.4 °F 16.2 °F 15.8 °F 59% 30.53 in 10.0 mi NE 17.3 mph - N/A   Clear
11:15 AM 28.4 °F 17.0 °F 15.8 °F 59% 30.52 in 10.0 mi NE 15.0 mph - N/A   Clear
11:35 AM 30.2 °F 19.3 °F 17.6 °F 60% 30.52 in 10.0 mi NE 15.0 mph 21.9 mph N/A   Clear
11:55 AM 30.2 °F 19.3 °F 15.8 °F 55% 30.50 in 10.0 mi NE 15.0 mph 21.9 mph N/A   Partly Cloudy
12:15 PM 32.0 °F 20.5 °F 15.8 °F 51% 30.49 in 10.0 mi ENE 18.4 mph - N/A   Clear
12:35 PM 30.2 °F 18.1 °F 15.8 °F 55% 30.48 in 10.0 mi ENE 18.4 mph - N/A   Clear
12:55 PM 32.0 °F 21.2 °F 15.8 °F 51% 30.46 in 10.0 mi ENE 16.1 mph 24.2 mph N/A   Partly Cloudy
1:15 PM 32.0 °F 20.8 °F 14.0 °F 48% 30.45 in 10.0 mi ENE 17.3 mph 25.3 mph N/A   Partly Cloudy
1:35 PM 30.2 °F 17.8 °F 14.0 °F 51% 30.45 in 10.0 mi NE 19.6 mph 23.0 mph N/A   Clear
1:55 PM 30.2 °F 18.5 °F 14.0 °F 51% 30.43 in 10.0 mi ENE 17.3 mph - N/A   Partly Cloudy
2:15 PM 30.2 °F 19.8 °F 12.2 °F 47% 30.43 in 10.0 mi ENE 13.8 mph 17.3 mph N/A   Scattered Clouds
2:35 PM 30.2 °F 19.3 °F 14.0 °F 51% 30.42 in 10.0 mi ENE 15.0 mph 20.7 mph N/A   Mostly Cloudy
2:55 PM 32.0 °F 21.2 °F 14.0 °F 48% 30.41 in 10.0 mi NE 16.1 mph 19.6 mph N/A   Overcast
3:15 PM 32.0 °F 20.5 °F 14.0 °F 48% 30.39 in 10.0 mi ENE 18.4 mph - N/A   Overcast
3:35 PM 32.0 °F 20.5 °F 14.0 °F 48% 30.38 in 10.0 mi ENE 18.4 mph - N/A   Overcast
3:55 PM 30.2 °F 18.1 °F 15.8 °F 55% 30.38 in 10.0 mi ENE 18.4 mph 23.0 mph N/A   Overcast
4:15 PM 32.0 °F 20.8 °F 15.8 °F 51% 30.38 in 10.0 mi ENE 17.3 mph 23.0 mph N/A   Overcast
4:35 PM 32.0 °F 22.1 °F 15.8 °F 51% 30.39 in 10.0 mi ENE 13.8 mph - N/A   Overcast
4:55 PM 32.0 °F 21.6 °F 15.8 °F 51% 30.37 in 10.0 mi ENE 15.0 mph - N/A   Overcast
5:15 PM 32.0 °F 22.5 °F 17.6 °F 55% 30.37 in 10.0 mi ENE 12.7 mph 18.4 mph N/A   Overcast
5:35 PM 32.0 °F 22.5 °F 17.6 °F 55% 30.38 in 10.0 mi ENE 12.7 mph - N/A   Overcast
5:55 PM 32.0 °F 22.5 °F 17.6 °F 55% 30.37 in 10.0 mi ENE 12.7 mph - N/A   Overcast
6:15 PM 32.0 °F 22.5 °F 17.6 °F 55% 30.37 in 10.0 mi ENE 12.7 mph - N/A   Overcast
6:35 PM 32.0 °F 23.6 °F 19.4 °F 60% 30.37 in 10.0 mi ENE 10.4 mph - N/A   Overcast
6:55 PM 32.0 °F 23.6 °F 17.6 °F 55% 30.36 in 10.0 mi ENE 10.4 mph - N/A   Overcast
7:15 PM 32.0 °F 23.6 °F 19.4 °F 60% 30.36 in 10.0 mi ENE 10.4 mph - N/A   Overcast
7:35 PM 32.0 °F 23.0 °F 19.4 °F 60% 30.35 in 10.0 mi ENE 11.5 mph - N/A   Overcast
7:55 PM 32.0 °F 23.0 °F 19.4 °F 60% 30.33 in 10.0 mi ENE 11.5 mph - N/A   Overcast
8:15 PM 32.0 °F 23.0 °F 19.4 °F 60% 30.33 in 10.0 mi ENE 11.5 mph - N/A   Overcast
8:35 PM 32.0 °F 24.2 °F 19.4 °F 60% 30.32 in 10.0 mi ENE 9.2 mph - N/A   Overcast
8:55 PM 32.0 °F 23.0 °F 19.4 °F 60% 30.29 in 10.0 mi East 11.5 mph - N/A   Overcast
9:15 PM 32.0 °F 23.6 °F 19.4 °F 60% 30.29 in 10.0 mi ENE 10.4 mph - N/A   Overcast
9:55 PM 32.0 °F 24.8 °F 19.4 °F 60% 30.30 in 10.0 mi NE 8.1 mph - N/A   Overcast
10:15 PM 32.0 °F 24.2 °F 21.2 °F 64% 30.28 in 10.0 mi ENE 9.2 mph - N/A   Overcast
10:35 PM 32.0 °F 24.8 °F 19.4 °F 60% 30.29 in 10.0 mi NE 8.1 mph - N/A   Overcast
10:55 PM 32.0 °F 24.8 °F 19.4 °F 60% 30.27 in 10.0 mi ENE 8.1 mph - N/A   Overcast
11:15 PM 32.0 °F 24.8 °F 19.4 °F 60% 30.26 in 10.0 mi ENE 8.1 mph - N/A   Overcast
11:55 PM 32.0 °F 24.8 °F 21.2 °F 64% 30.24 in 10.0 mi ENE 8.1 mph - N/A   Overcast